TimeEDT,TemperatureF,Dew PointF,Humidity,Sea Level PressureIn,VisibilityMPH,Wind Direction,Wind SpeedMPH,Gust SpeedMPH,PrecipitationIn,Events,Conditions,WindDirDegrees,DateUTC
12:26 AM,48.2,46.4,93,29.91,6.0,ESE,3.5,-,0.03,,Overcast,120,2013-04-18 04:26:00
12:42 AM,48.2,46.4,93,29.90,5.0,East,4.6,-,0.03,Thunderstorm,Overcast,100,2013-04-18 04:42:00
12:53 AM,48.9,48.0,97,29.92,4.0,Variable,3.5,-,0.04,Rain-Thunderstorm,Light Rain,0,2013-04-18 04:53:00
1:02 AM,48.2,48.2,100,29.89,1.8,East,8.1,-,0.06,Rain-Thunderstorm,Heavy Thunderstorms and Rain,100,2013-04-18 05:02:00
1:16 AM,48.2,48.2,100,29.89,0.8,ESE,9.2,-,0.39,Rain-Thunderstorm,Heavy Thunderstorms and Rain,110,2013-04-18 05:16:00
1:21 AM,48.2,48.2,100,29.89,1.0,Variable,4.6,-,0.41,Rain-Thunderstorm,Heavy Thunderstorms and Rain,0,2013-04-18 05:21:00
1:27 AM,50.0,48.2,94,29.87,3.0,Variable,5.8,-,0.41,Rain-Thunderstorm,Light Thunderstorms and Rain,0,2013-04-18 05:27:00
1:38 AM,50.0,48.2,94,29.87,8.0,ESE,9.2,17.3,0.41,Thunderstorm,Overcast,110,2013-04-18 05:38:00
1:53 AM,50.0,48.0,93,29.92,8.0,West,13.8,18.4,0.41,Thunderstorm,Overcast,260,2013-04-18 05:53:00
2:08 AM,50.0,46.4,87,29.86,7.0,ESE,17.3,24.2,N/A,Thunderstorm,Overcast,120,2013-04-18 06:08:00
2:53 AM,48.9,46.0,90,29.83,5.0,SE,5.8,-,0.00,Rain-Thunderstorm,Light Rain,130,2013-04-18 06:53:00
3:09 AM,48.2,46.4,93,29.82,5.0,Variable,3.5,-,0.00,,Overcast,0,2013-04-18 07:09:00
3:53 AM,48.9,46.9,93,29.78,5.0,SE,6.9,-,0.00,,Overcast,130,2013-04-18 07:53:00
4:25 AM,50.0,48.2,94,29.76,5.0,ESE,5.8,-,N/A,,Overcast,120,2013-04-18 08:25:00
4:51 AM,50.0,48.2,94,29.80,4.0,NW,15.0,19.6,N/A,,Overcast,310,2013-04-18 08:51:00
4:53 AM,50.0,48.0,93,29.79,4.0,NW,12.7,19.6,N/A,,Overcast,310,2013-04-18 08:53:00
5:41 AM,50.0,48.2,94,29.76,3.0,ENE,3.5,-,0.01,Rain-Thunderstorm,Light Thunderstorms and Rain,60,2013-04-18 09:41:00
5:45 AM,50.0,48.2,94,29.75,2.5,ENE,3.5,-,0.01,Rain,Light Rain,60,2013-04-18 09:45:00
5:53 AM,50.0,48.0,93,29.75,3.0,East,5.8,-,0.01,Rain-Thunderstorm,Light Thunderstorms and Rain,80,2013-04-18 09:53:00
6:06 AM,50.0,48.2,94,29.73,2.5,East,6.9,-,0.00,Thunderstorm,Overcast,90,2013-04-18 10:06:00
6:14 AM,50.0,48.2,94,29.73,2.5,East,6.9,-,0.00,,Overcast,90,2013-04-18 10:14:00
6:49 AM,48.2,48.2,100,29.69,2.5,ESE,9.2,-,0.00,,Scattered Clouds,110,2013-04-18 10:49:00
6:53 AM,48.9,48.0,97,29.70,2.5,ESE,6.9,-,0.00,,Scattered Clouds,120,2013-04-18 10:53:00
7:53 AM,55.0,53.1,93,29.67,4.0,SSE,6.9,-,N/A,,Clear,150,2013-04-18 11:53:00
8:48 AM,53.6,51.8,94,29.65,2.0,Calm,Calm,-,N/A,,Mostly Cloudy,0,2013-04-18 12:48:00
8:53 AM,55.0,53.1,93,29.65,2.5,East,4.6,-,N/A,,Scattered Clouds,100,2013-04-18 12:53:00
9:28 AM,60.8,57.2,88,29.63,4.0,South,6.9,-,N/A,,Overcast,180,2013-04-18 13:28:00
9:48 AM,66.2,60.8,83,29.61,8.0,South,18.4,21.9,N/A,,Mostly Cloudy,180,2013-04-18 13:48:00
9:53 AM,66.0,61.0,84,29.61,8.0,South,15.0,-,N/A,,Scattered Clouds,180,2013-04-18 13:53:00
10:36 AM,69.8,62.6,78,29.60,7.0,South,19.6,25.3,N/A,,Mostly Cloudy,180,2013-04-18 14:36:00
10:53 AM,70.0,63.0,78,29.58,8.0,South,21.9,28.8,N/A,,Mostly Cloudy,180,2013-04-18 14:53:00
11:53 AM,71.1,63.0,75,29.56,8.0,SSW,29.9,44.9,N/A,,Mostly Cloudy,200,2013-04-18 15:53:00
12:53 PM,69.1,62.1,78,29.58,6.0,SW,15.0,25.3,0.01,Rain,Light Rain,220,2013-04-18 16:53:00
1:23 PM,66.2,60.8,83,29.62,10.0,SSW,18.4,26.5,0.01,Rain,Light Rain,200,2013-04-18 17:23:00
1:37 PM,64.4,60.8,88,29.62,4.0,SSW,20.7,29.9,0.03,Rain,Light Rain,210,2013-04-18 17:37:00
1:53 PM,64.9,61.0,87,29.62,4.0,SSW,16.1,24.2,0.03,Rain,Light Rain,210,2013-04-18 17:53:00
2:53 PM,64.0,61.0,90,29.64,4.0,SSW,17.3,24.2,0.02,Rain,Light Rain,200,2013-04-18 18:53:00
3:09 PM,64.4,60.8,88,29.64,10.0,SSW,13.8,-,0.00,Rain,Light Rain,210,2013-04-18 19:09:00
3:44 PM,62.6,60.8,94,29.64,7.0,South,15.0,-,0.02,Rain,Light Rain,190,2013-04-18 19:44:00
3:53 PM,63.0,60.1,90,29.66,7.0,SSW,16.1,-,0.02,Rain,Light Rain,200,2013-04-18 19:53:00
4:53 PM,63.0,60.1,90,29.62,8.0,SSW,16.1,-,0.02,Rain,Light Rain,200,2013-04-18 20:53:00
5:18 PM,62.6,60.8,94,29.60,10.0,South,17.3,-,0.00,Rain,Light Rain,190,2013-04-18 21:18:00
5:53 PM,62.1,60.1,93,29.62,5.0,SSW,16.1,25.3,0.03,Rain,Light Rain,200,2013-04-18 21:53:00
6:53 PM,61.0,59.0,93,29.64,5.0,SSW,17.3,24.2,0.05,Rain,Light Rain,200,2013-04-18 22:53:00
7:53 PM,61.0,59.0,93,29.61,5.0,South,16.1,27.6,0.04,Rain,Light Rain,170,2013-04-18 23:53:00
8:53 PM,60.1,57.9,93,29.55,10.0,SSE,10.4,-,0.05,Rain,Light Rain,150,2013-04-19 00:53:00
9:33 PM,60.8,57.2,88,29.56,8.0,South,18.4,27.6,0.01,Rain,Light Rain,170,2013-04-19 01:33:00
9:53 PM,60.1,57.9,93,29.56,6.0,SSE,15.0,24.2,0.03,Rain,Rain,160,2013-04-19 01:53:00
10:53 PM,59.0,57.0,93,29.53,4.0,SSE,10.4,20.7,0.13,Rain,Rain,150,2013-04-19 02:53:00
11:24 PM,59.0,57.2,94,29.52,4.0,SSE,11.5,20.7,0.06,Rain,Rain,150,2013-04-19 03:24:00
11:53 PM,59.0,57.0,93,29.49,4.0,SSE,11.5,18.4,0.12,Rain,Rain,150,2013-04-19 03:53:00
11:57 PM,59.0,57.2,94,29.50,4.0,SSE,12.7,21.9,0.01,Rain,Rain,150,2013-04-19 03:57:00